Retour au catalogue

FENGYUN 1C DEB

ActifPO
NORAD 30191·DEBRIS·🇨🇳 China

Lancé May 10, 1999 depuis Taiyuan Satellite Launch Center

Loading…

Prochains Passages (prochaines 24 heures)

TLE

FraisSource: Space-Track

Époque: Sep 13, 2026, 06:26 UTC

1 30191U 99025UY  26256.26805749  .00006000  00000-0  71648-3 0  9996
2 30191  98.7638 357.4509 0092031 113.6017 312.7610 14.81634835 43363

Suivez FENGYUN 1C DEB en temps réel avec AllMySat

Download on the App Store